[[{"header":{"parameterUnit":"m.s-1","parameterCategory":2,"la1":30.2991,"la2":30.254,"lo1":-89.0895,"lo2":-89.0444,"dy":0.0017,"dx":0.0017,"nx":28,"ny":28,"refTime":"2023-08-21T09:00:00:Z","depth":"0","parameterNumber":2,"parameterNumberName":"U-component_of_CURRENTS"},"data":[0,0,0,0,0,0,0,0,0,0,0,0,0,0,0,0,0,0,0,0,0,0,0,0,0,0,0,0,0,0,0,0,0,0,0,0,0,0,0,0,0,0,0,0,0,0,0,0,0,0,0,0,0,0,0,0,0,0,0.269,0.2688,0,0.2554,0.2553,0.2552,0.2576,0.2578,0.258,0.2582,0.2622,0.2621,0.262,0,0,0,0,0,0,0,0,0,0,0,0,0,0.2918,0.2914,0.269,0.2688,0.2686,0.2554,0.2553,0.2551,0.2575,0.2578,0.2581,0.2583,0.2622,0.2621,0.262,0,0,0,0,0,0,0,0,0,0,0,0,0,0.2807,0.2913,0.269,0.2681,0.2678,0.2555,0.2553,0.2551,0.2575,0.2578,0.2581,0.2584,0.2622,0.2621,0.262,0.2544,0,0,0.2615,0.2614,0,0,0,0,0,0,0,0,0.2813,0.2799,0.2684,0.2681,0.2678,0.2583,0.2648,0.2557,0.2574,0.2616,0.2582,0.2586,0.2621,0.262,0.2588,0.2546,0.2548,0.2615,0.2614,0.2613,0.2613,0,0,0,0,0,0,0,0.2821,0.2804,0.2638,0.2682,0.2678,0.2665,0.2654,0.263,0.2607,0.2613,0.2614,0.2594,0.2622,0.2589,0.2589,0.2548,0.2615,0.2614,0.2613,0.2612,0.2626,0.2627,0,0,0,0,0,0,0.2831,0.2811,0.2643,0.2634,0.2753,0.2659,0.2646,0.2612,0.2603,0.2603,0.2591,0.2596,0.259,0.2591,0.2591,0.2631,0.2613,0.2612,0.2611,0.2624,0.2626,0.2627,0,0,0,0,0,0,0.2836,0.2817,0.2648,0.272,0.2697,0.2651,0.2613,0.2608,0.2597,0.2585,0.2589,0.2589,0.2592,0.2593,0.2605,0.2629,0.2611,0.261,0.2623,0.2625,0.2627,0.263,0,0,0,0,0,0,0.2843,0.2819,0.2811,0.2719,0.2693,0.2578,0.261,0.2603,0.2577,0.2582,0.2583,0.2589,0.2595,0.2607,0.2603,0.2627,0.2609,0.2621,0.2624,0.2626,0.2628,0.2632,0.2635,0,0,0,0,0,0.2852,0.2805,0.2811,0.2791,0.2679,0.2576,0.2561,0.2543,0.2574,0.255,0.2581,0.259,0.2621,0.2605,0.2601,0.2625,0.262,0.2623,0.2626,0.2627,0.2631,0.2634,0,0,0,0,0,0,0.2902,0.28,0.2805,0.2734,0.2671,0.258,0.2552,0.2543,0.2538,0.2564,0.2579,0.2585,0.2609,0.2612,0.2595,0.2641,0.2632,0.2634,0.2634,0.2638,0.2641,0.2646,0.2607,0,0,0,0,0,0.2907,0.2857,0.2763,0.2719,0.268,0.2624,0.2589,0.2569,0.2542,0.2543,0.2543,0.2573,0.2606,0.2621,0.2625,0.2628,0.2639,0.2652,0.2655,0.2658,0.2663,0.2692,0.2698,0.2637,0.2637,0.2636,0,0,0.2919,0.2859,0.2834,0.2729,0.2681,0.2614,0.2612,0.2546,0.253,0.2548,0.2541,0.2566,0.2608,0.2627,0.264,0.264,0.2683,0.2661,0.2663,0.2667,0.2695,0.2701,0.2706,0.2638,0.2638,0.2638,0,0,0.2886,0.2857,0.2792,0.2732,0.2649,0.2614,0.26,0.251,0.2517,0.2493,0.254,0.258,0.258,0.263,0.2661,0.268,0.2692,0.2695,0.2717,0.2746,0.2751,0.2755,0.2777,0.2783,0.2705,0.2705,0.2705,0,0.2905,0.2812,0.2761,0.268,0.2644,0.2619,0.2552,0.2538,0.2479,0.2499,0.25,0.2563,0.2588,0.2668,0.2692,0.2687,0.2703,0.2696,0.2748,0.2753,0.2757,0.2779,0.2785,0.2705,0.2705,0.2705,0.2705,0,0.2813,0.275,0.2704,0.2615,0.2575,0.2507,0.2477,0.2468,0.2484,0.2482,0.2536,0.2568,0.2617,0.2644,0.2676,0.2743,0.2744,0.2739,0.2732,0.2763,0.2784,0.2791,0.2706,0.2706,0.2705,0.2705,0,0,0.28,0.2665,0.2651,0.2613,0.2535,0.2487,0.2488,0.2473,0.2507,0.2495,0.2541,0.2609,0.2639,0.2678,0.2728,0.2768,0.2815,0.2774,0.2775,0.2786,0.2877,0.2758,0.2754,0.2819,0.282,0.2821,0.2878,0,0.2741,0.2605,0.2561,0.248,0.2409,0.2415,0.2423,0.2435,0.2469,0.2508,0.2585,0.2636,0.2653,0.2696,0.2738,0.28,0.2834,0.2799,0.2855,0.2857,0.2738,0.2758,0.257,0.2595,0.2885,0.2886,0.2887,0,0.2645,0.2575,0.2471,0.242,0.2396,0.2372,0.2414,0.2414,0.2493,0.2523,0.2594,0.2648,0.2737,0.2733,0.2833,0.2811,0.2845,0.288,0.2882,0.2774,0.275,0.2613,0.2597,0.2552,0.2898,0.2897,0.2897,0,0.2636,0.2514,0.245,0.2417,0.2357,0.2361,0.2367,0.2426,0.2451,0.2545,0.2578,0.2677,0.2724,0.2788,0.2853,0.2852,0.2944,0.2944,0.2868,0.2861,0.2712,0.2687,0.2645,0.3,0.3,0.3,0.3,0,0.2562,0.2504,0.2443,0.2394,0.2373,0.2353,0.2369,0.24,0.2461,0.2496,0.2589,0.2636,0.2738,0.2803,0.2862,0.2874,0.2942,0.2872,0.2865,0.2707,0.2682,0.2644,0.2616,0.3002,0.3001,0.3001,0.3001,0,0.2522,0.247,0.2393,0.2348,0.2344,0.2336,0.2339,0.2361,0.2422,0.2474,0.2502,0.2608,0.2686,0.2776,0.2878,0.2855,0.2799,0.2892,0.2692,0.2658,0.2505,0.2483,0.234,0.2276,0.2809,0.2806,0.2804,0,0.2469,0.2423,0.2371,0.2348,0.2319,0.2307,0.2306,0.234,0.2357,0.2448,0.2469,0.2568,0.2603,0.2693,0.2692,0.2736,0.2718,0.2577,0.2527,0.2463,0.2437,0.2368,0.2322,0.2348,0.2342,0.2337,0.2333,0,0.2395,0.2394,0.2351,0.2308,0.2287,0.2257,0.2254,0.2258,0.2305,0.2339,0.2389,0.2426,0.2479,0.2419,0.2445,0.2455,0.2398,0.2477,0.2468,0.2107,0.1973,0.1918,0.2359,0.2291,0.2295,0.2298,0.2301,0.2302,0.2367,0.2343,0.2308,0.2263,0.2238,0.2199,0.2147,0.2158,0.2156,0.2154,0.2252,0.2231,0.2209,0.2203,0.2192,0.2045,0.2106,0.1976,0.1971,0.1923,0.1787,0.2121,0.2004,0.2006,0.2008,0.201,0.2012,0,0.2315,0.2295,0.2261,0.2188,0.2122,0.2131,0.2095,0.203,0.198,0.2006,0.2001,0.1932,0.183,0.1825,0.1674,0.1563,0.1509,0.1533,0.1419,0.1416,0.1762,0.1668,0.14,0.14,0.1401,0.1401,0.1401,0.1401,0.228,0.223,0.221,0.208,0.2026,0.1902,0.1854,0.1797,0.1778,0.1677,0.1601,0.1589,0.1575,0.1437,0.1285,0.1248,0.1185,0.1046,0.1153,0.1423,0.1466,0.1507,0.1416,0.1099,0.1099,0.0721,0.0718,0.0716]},{"header":{"parameterUnit":"m.s-1","parameterCategory":2,"la1":30.2991,"la2":30.254,"lo1":-89.0895,"lo2":-89.0444,"dy":0.0017,"dx":0.0017,"nx":28,"ny":28,"refTime":"2023-08-21T09:00:00:Z","depth":"0","parameterNumber":3,"parameterNumberName":"V-component_of_CURRENTS"},"data":[0,0,0,0,0,0,0,0,0,0,0,0,0,0,0,0,0,0,0,0,0,0,0,0,0,0,0,0,0,0,0,0,0,0,0,0,0,0,0,0,0,0,0,0,0,0,0,0,0,0,0,0,0,0,0,0,0,0,-0.0594,-0.0591,0,-0.0414,-0.0413,-0.0412,-0.0441,-0.0443,-0.0444,-0.0446,-0.0582,-0.0584,-0.0586,0,0,0,0,0,0,0,0,0,0,0,0,0,-0.1065,-0.1057,-0.0594,-0.059,-0.0587,-0.0414,-0.0413,-0.0411,-0.044,-0.0443,-0.0445,-0.0447,-0.0582,-0.0584,-0.0586,0,0,0,0,0,0,0,0,0,0,0,0,0,-0.0883,-0.1054,-0.0594,-0.057,-0.0565,-0.0414,-0.0413,-0.0411,-0.044,-0.0443,-0.0445,-0.0448,-0.0581,-0.0584,-0.0586,-0.0548,0,0,-0.0595,-0.0596,0,0,0,0,0,0,0,0,-0.0893,-0.0868,-0.0577,-0.0572,-0.0566,-0.044,-0.0628,-0.0468,-0.0439,-0.0502,-0.0446,-0.0449,-0.0553,-0.0558,-0.0533,-0.0555,-0.056,-0.0595,-0.0597,-0.0598,-0.0599,0,0,0,0,0,0,0,-0.0906,-0.0876,-0.0536,-0.0573,-0.0566,-0.0603,-0.0581,-0.0598,-0.0531,-0.0497,-0.0495,-0.0452,-0.0555,-0.053,-0.0537,-0.0562,-0.0595,-0.0598,-0.0599,-0.0601,-0.0677,-0.0677,0,0,0,0,0,0,-0.089,-0.0886,-0.0542,-0.053,-0.0724,-0.059,-0.0566,-0.0489,-0.0523,-0.0525,-0.045,-0.0454,-0.0524,-0.0534,-0.0543,-0.0569,-0.0598,-0.0601,-0.0602,-0.0676,-0.0677,-0.0677,0,0,0,0,0,0,-0.09,-0.086,-0.0549,-0.0697,-0.0658,-0.0577,-0.0492,-0.0484,-0.0453,-0.0482,-0.0493,-0.0426,-0.0526,-0.0539,-0.0568,-0.0573,-0.0602,-0.0605,-0.0676,-0.0676,-0.0677,-0.0579,0,0,0,0,0,0,-0.0914,-0.0864,-0.0818,-0.0693,-0.0648,-0.0442,-0.0487,-0.0478,-0.0416,-0.042,-0.0465,-0.048,-0.053,-0.0563,-0.0571,-0.0577,-0.0607,-0.0676,-0.0676,-0.0677,-0.0582,-0.0576,-0.0571,0,0,0,0,0,-0.0931,-0.084,-0.0816,-0.0775,-0.0581,-0.0437,-0.0419,-0.0384,-0.0412,-0.0375,-0.0432,-0.0479,-0.0574,-0.0564,-0.0573,-0.0581,-0.0675,-0.0676,-0.0677,-0.0584,-0.0577,-0.0571,0,0,0,0,0,0,-0.1018,-0.0828,-0.0802,-0.0658,-0.0551,-0.0437,-0.0385,-0.0367,-0.0372,-0.0394,-0.0461,-0.0478,-0.0511,-0.0554,-0.0542,-0.061,-0.0641,-0.0643,-0.0567,-0.0561,-0.0556,-0.052,-0.0609,0,0,0,0,0,-0.1009,-0.0898,-0.0739,-0.063,-0.0564,-0.0478,-0.0421,-0.0386,-0.0356,-0.0358,-0.0397,-0.046,-0.0515,-0.0544,-0.0586,-0.0602,-0.0606,-0.0623,-0.0617,-0.0612,-0.0592,-0.0612,-0.0605,-0.0679,-0.0679,-0.0679,0,0,-0.1012,-0.0894,-0.0832,-0.0643,-0.056,-0.0453,-0.0454,-0.0339,-0.0301,-0.0377,-0.0372,-0.0429,-0.0513,-0.0544,-0.0566,-0.0585,-0.0586,-0.0613,-0.0608,-0.0591,-0.0611,-0.0604,-0.0597,-0.068,-0.068,-0.068,0,0,-0.0946,-0.0849,-0.0731,-0.0632,-0.0476,-0.0425,-0.0387,-0.0269,-0.0271,-0.0245,-0.0323,-0.0374,-0.0428,-0.0495,-0.0541,-0.0527,-0.0551,-0.0555,-0.0501,-0.052,-0.0513,-0.0507,-0.0457,-0.0448,-0.0559,-0.0559,-0.0559,0,-0.096,-0.0781,-0.0683,-0.0548,-0.0469,-0.0411,-0.0294,-0.0271,-0.0203,-0.0212,-0.024,-0.0335,-0.0407,-0.047,-0.0479,-0.0513,-0.05,-0.0515,-0.0509,-0.0503,-0.0499,-0.045,-0.044,-0.0554,-0.0555,-0.0555,-0.0556,0,-0.0798,-0.067,-0.0589,-0.0416,-0.0336,-0.0215,-0.0151,-0.0124,-0.0136,-0.0127,-0.0168,-0.0252,-0.0312,-0.0358,-0.0416,-0.0438,-0.0426,-0.0489,-0.0513,-0.0484,-0.0435,-0.0427,-0.0548,-0.0549,-0.0551,-0.0552,0,0,-0.0769,-0.0523,-0.0496,-0.0408,-0.0253,-0.0162,-0.0122,-0.0054,-0.0041,-0.0049,-0.0041,-0.0156,-0.0194,-0.0248,-0.0332,-0.0362,-0.0319,-0.0403,-0.0406,-0.0329,-0.0294,-0.024,-0.0226,-0.0376,-0.0376,-0.0375,-0.0255,0,-0.0669,-0.0428,-0.0343,-0.0172,-0.0044,-0.0009,0.0023,0.0058,0.0049,0.0058,-0.0039,-0.0066,-0.0158,-0.0185,-0.0228,-0.0307,-0.0301,-0.0342,-0.0355,-0.0353,-0.0291,-0.0217,-0.0204,-0.0093,-0.0247,-0.0246,-0.0245,0,-0.0516,-0.0386,-0.0185,-0.004,0.0015,0.0087,0.0142,0.0185,0.0175,0.0163,0.0122,0.0065,0.0008,-0.007,-0.0143,-0.0159,-0.0202,-0.0254,-0.0252,-0.023,-0.0285,-0.016,-0.0073,-0.0134,-0.0233,-0.0234,-0.0235,0,-0.05,-0.0275,-0.013,-0.0062,0.01,0.0141,0.0191,0.0211,0.0243,0.0239,0.0264,0.0183,0.0159,0.008,-0.002,-0.0074,-0.0064,-0.0164,-0.0137,-0.0132,-0.0137,-0.0134,-0.0095,-0.0178,-0.0178,-0.0178,-0.0179,0,-0.0386,-0.0268,-0.0114,-0.0017,0.0093,0.018,0.0267,0.0291,0.0332,0.0392,0.0324,0.0357,0.0194,0.0171,0.0065,0.0025,0.0009,-0.0082,-0.0097,-0.0099,-0.0093,-0.0164,-0.0215,-0.0174,-0.0175,-0.0176,-0.0176,0,-0.0336,-0.0223,-0.0057,0.0092,0.0135,0.0212,0.0343,0.0399,0.0429,0.0513,0.0526,0.0502,0.0487,0.0367,0.026,0.0155,0.0076,0.0081,0.0134,0.0123,0.0061,0.0015,0.0077,0.0049,0.0132,0.0135,0.0136,0,-0.0267,-0.0163,0.0007,0.0084,0.0165,0.0281,0.0363,0.0436,0.0507,0.0613,0.0664,0.0682,0.0713,0.0618,0.0444,0.0338,0.0214,0.0268,0.0137,0.0111,0.0047,0.0012,-0.0022,0.0189,0.0191,0.0193,0.0194,0,-0.016,-0.0109,0.0007,0.0156,0.0265,0.0392,0.0517,0.0587,0.0686,0.0774,0.0892,0.0935,0.0866,0.0767,0.0624,0.051,0.0241,0.03,0.023,0.0087,0.0092,0.004,0.0102,0.0209,0.0207,0.0206,0.0206,0.0205,-0.0108,-0.0028,0.0112,0.0246,0.0364,0.0505,0.0606,0.0735,0.088,0.1027,0.1058,0.1151,0.1002,0.0809,0.067,0.0418,0.0381,0.0296,0.0249,0.0224,0.0172,0.032,0.0419,0.0419,0.0419,0.0419,0.0418,0,-0.0016,0.0076,0.0201,0.037,0.0497,0.0547,0.0716,0.0819,0.0998,0.1137,0.1249,0.1252,0.1096,0.0867,0.0552,0.038,0.0263,0.0281,0.0195,0.0162,0.026,0.0234,0.0349,0.0349,0.0349,0.0349,0.0349,0.0349,0.0045,0.0185,0.0247,0.0465,0.057,0.0737,0.0831,0.0978,0.11,0.1282,0.1353,0.1382,0.1235,0.0735,0.0396,0.0301,0.0152,0.0156,0.0087,0.0101,0.0096,0.0092,0.0055,0.0131,0.0131,-0.0012,-0.0013,-0.0014]}],[{"header":{"parameterUnit":"m.s-1","parameterCategory":2,"la1":30.2991,"la2":30.254,"lo1":-89.0895,"lo2":-89.0444,"dy":0.0017,"dx":0.0017,"nx":28,"ny":28,"refTime":"2023-08-21T09:00:00:Z","depth":"2","parameterNumber":2,"parameterNumberName":"U-component_of_CURRENTS"},"data":[0,0,0,0,0,0,0,0,0,0,0,0,0,0,0,0,0,0,0,0,0,0,0,0,0,0,0,0,0,0,0,0,0,0,0,0,0,0,0,0,0,0,0,0,0,0,0,0,0,0,0,0,0,0,0,0,0,0,0.154,0.154,0,0.1596,0.1597,0.1598,0.1633,0.1633,0.1632,0.1632,0.1686,0.1688,0.169,0,0,0,0,0,0,0,0,0,0,0,0,0,0.1501,0.1502,0.154,0.154,0.154,0.1596,0.1597,0.1599,0.1633,0.1633,0.1632,0.1632,0.1686,0.1688,0.169,0,0,0,0,0,0,0,0,0,0,0,0,0,0.1539,0.1502,0.154,0.156,0.1561,0.1596,0.1597,0.1599,0.1633,0.1633,0.1632,0.1631,0.1685,0.1687,0.169,0.1719,0,0,0.1699,0.17,0,0,0,0,0,0,0,0,0.1537,0.1542,0.1557,0.1558,0.156,0.1601,0.1603,0.1637,0.1633,0.1613,0.1632,0.1631,0.1654,0.1659,0.168,0.1722,0.1724,0.1699,0.17,0.1702,0.1702,0,0,0,0,0,0,0,0.1534,0.1539,0.1569,0.1557,0.1559,0.1578,0.1583,0.161,0.1641,0.1615,0.1616,0.1612,0.1656,0.1678,0.1682,0.1725,0.1699,0.1701,0.1703,0.1704,0.1777,0.1778,0,0,0,0,0,0,0.1513,0.1537,0.1567,0.157,0.154,0.1578,0.1584,0.1594,0.1641,0.1645,0.1612,0.1613,0.1673,0.1678,0.1684,0.1736,0.1702,0.1704,0.1706,0.1777,0.1777,0.1778,0,0,0,0,0,0,0.1513,0.1516,0.1565,0.1549,0.1555,0.1579,0.159,0.1595,0.1622,0.1638,0.1644,0.1632,0.1673,0.168,0.171,0.1737,0.1705,0.1708,0.1777,0.1777,0.1778,0.183,0,0,0,0,0,0,0.1512,0.1516,0.1525,0.1548,0.1555,0.159,0.159,0.1597,0.1616,0.1619,0.1657,0.1661,0.1673,0.1705,0.1712,0.174,0.171,0.1776,0.1777,0.1777,0.1828,0.1832,0.1836,0,0,0,0,0,0.151,0.1517,0.1526,0.1529,0.1565,0.159,0.1597,0.1615,0.1618,0.1637,0.1655,0.166,0.1713,0.1708,0.1716,0.1746,0.1776,0.1777,0.1777,0.1826,0.1831,0.1836,0,0,0,0,0,0,0.1521,0.1521,0.1532,0.1544,0.1568,0.1593,0.1613,0.162,0.1654,0.1659,0.1672,0.1679,0.1714,0.1716,0.171,0.1764,0.1743,0.1745,0.1777,0.1782,0.1786,0.1791,0.1712,0,0,0,0,0,0.1523,0.152,0.1539,0.1553,0.1568,0.1594,0.1609,0.1621,0.1644,0.1659,0.1681,0.1701,0.1724,0.1741,0.1761,0.1797,0.1798,0.1815,0.1819,0.1823,0.183,0.1832,0.1838,0.178,0.178,0.178,0,0,0.1521,0.153,0.1524,0.1553,0.158,0.1604,0.1605,0.1632,0.1654,0.1659,0.1705,0.172,0.1735,0.1775,0.179,0.1781,0.1845,0.1824,0.1827,0.1833,0.1834,0.184,0.1845,0.1781,0.178,0.178,0,0,0.1527,0.1542,0.1547,0.1569,0.1601,0.1618,0.1624,0.1658,0.1681,0.1721,0.1726,0.1752,0.1795,0.181,0.1823,0.1858,0.1864,0.1864,0.1898,0.1901,0.1906,0.191,0.1945,0.1952,0.1868,0.1868,0.1868,0,0.1523,0.1548,0.1556,0.1582,0.1599,0.1623,0.1647,0.1678,0.1713,0.1729,0.1739,0.1795,0.1813,0.185,0.1871,0.1871,0.1881,0.1884,0.1907,0.1911,0.1915,0.1949,0.1956,0.1871,0.1871,0.187,0.187,0,0.1544,0.1566,0.158,0.1613,0.1634,0.1661,0.1693,0.1723,0.175,0.1769,0.1817,0.1848,0.1875,0.189,0.1903,0.1939,0.1943,0.1912,0.1899,0.1924,0.1959,0.1965,0.1875,0.1874,0.1873,0.1872,0,0,0.1522,0.1575,0.1587,0.1604,0.1653,0.1668,0.1714,0.1752,0.1777,0.1822,0.1858,0.1912,0.1922,0.1936,0.1951,0.1971,0.2024,0.1965,0.1964,0.2008,0.206,0.1957,0.1954,0.1997,0.1998,0.1999,0.2084,0,0.154,0.1585,0.161,0.1649,0.1669,0.1704,0.174,0.1773,0.1814,0.1855,0.189,0.1929,0.1941,0.1966,0.1988,0.202,0.2039,0.2006,0.2021,0.2023,0.1933,0.1956,0.1787,0.1837,0.209,0.2091,0.2091,0,0.155,0.1583,0.1625,0.1659,0.1674,0.1701,0.1755,0.1788,0.1843,0.1877,0.1919,0.1945,0.2007,0.1995,0.2067,0.2049,0.2059,0.2076,0.2078,0.1965,0.1929,0.1846,0.1839,0.2102,0.2101,0.21,0.21,0,0.1527,0.1581,0.1614,0.1631,0.1683,0.1711,0.1739,0.1793,0.1827,0.1889,0.1923,0.1981,0.2025,0.2053,0.209,0.209,0.2149,0.2141,0.2057,0.2052,0.19,0.1878,0.2159,0.2159,0.2158,0.2158,0.2158,0,0.1521,0.1551,0.1607,0.163,0.1659,0.1697,0.1739,0.1777,0.184,0.1869,0.1929,0.1965,0.2039,0.2076,0.2102,0.2101,0.2151,0.2072,0.2058,0.1914,0.1894,0.2106,0.2098,0.2161,0.2161,0.216,0.216,0,0.1488,0.1537,0.1563,0.1626,0.1648,0.1665,0.1733,0.1758,0.1826,0.1873,0.1895,0.1978,0.2028,0.2074,0.2128,0.2105,0.2115,0.2082,0.1925,0.1888,0.2031,0.2026,0.2043,0.204,0.2037,0.2035,0.2033,0,0.1477,0.1486,0.1547,0.1571,0.1607,0.1646,0.1673,0.1742,0.177,0.1865,0.1877,0.1951,0.1968,0.2015,0.1986,0.1996,0.2049,0.1825,0.1774,0.203,0.2016,0.2014,0.2012,0.1624,0.1619,0.1615,0.1611,0,0.1444,0.1466,0.1503,0.1539,0.1574,0.1594,0.164,0.166,0.1732,0.1769,0.181,0.1837,0.1871,0.1791,0.1779,0.1759,0.1816,0.1739,0.2039,0.1657,0.1634,0.162,0.1632,0.1574,0.1578,0.1581,0.1583,0.1584,0.1425,0.1421,0.1467,0.1491,0.1528,0.1533,0.1524,0.1565,0.1583,0.1611,0.1687,0.1665,0.1669,0.1572,0.1506,0.1456,0.1597,0.1528,0.1541,0.1559,0.1472,0.1443,0.1335,0.1337,0.1339,0.1341,0.1342,0,0.1374,0.1385,0.1412,0.1435,0.1438,0.1481,0.1488,0.1454,0.1428,0.1473,0.1485,0.1348,0.1273,0.1284,0.1146,0.1125,0.1129,0.1077,0.1076,0.1113,0.1145,0.1038,0.0786,0.0785,0.0783,0.0782,0,0,0.1359,0.136,0.1359,0.1343,0.1358,0.132,0.1303,0.1262,0.1259,0.1212,0.1183,0.126,0.1267,0.1034,0.0977,0.0863,0.0991,0.0823,0.1269,0.1308,0.1339,0.1401,0.1275,0,0,0,0,0]},{"header":{"parameterUnit":"m.s-1","parameterCategory":2,"la1":30.2991,"la2":30.254,"lo1":-89.0895,"lo2":-89.0444,"dy":0.0017,"dx":0.0017,"nx":28,"ny":28,"refTime":"2023-08-21T09:00:00:Z","depth":"2","parameterNumber":3,"parameterNumberName":"V-component_of_CURRENTS"},"data":[0,0,0,0,0,0,0,0,0,0,0,0,0,0,0,0,0,0,0,0,0,0,0,0,0,0,0,0,0,0,0,0,0,0,0,0,0,0,0,0,0,0,0,0,0,0,0,0,0,0,0,0,0,0,0,0,0,0,0.0396,0.0395,0,0.0306,0.0305,0.0304,0.0276,0.0277,0.0277,0.0278,0.021,0.0208,0.0206,0,0,0,0,0,0,0,0,0,0,0,0,0,0.0505,0.0504,0.0396,0.0395,0.0394,0.0306,0.0305,0.0303,0.0276,0.0277,0.0277,0.0278,0.0211,0.0208,0.0205,0,0,0,0,0,0,0,0,0,0,0,0,0,0.0439,0.0503,0.0396,0.0371,0.0368,0.0307,0.0305,0.0303,0.0276,0.0277,0.0277,0.0278,0.0212,0.0208,0.0205,0.0166,0,0,0.0194,0.0193,0,0,0,0,0,0,0,0,0.0443,0.0435,0.0375,0.0372,0.0369,0.0305,0.0319,0.0259,0.0275,0.0309,0.0278,0.0279,0.0244,0.0238,0.0217,0.0163,0.016,0.0194,0.0192,0.019,0.0189,0,0,0,0,0,0,0,0.0448,0.0439,0.0358,0.0374,0.037,0.0351,0.0343,0.0307,0.0272,0.0306,0.0304,0.0297,0.0243,0.022,0.0215,0.0159,0.0194,0.0191,0.0189,0.0187,0.0155,0.0156,0,0,0,0,0,0,0.0463,0.0443,0.0361,0.0356,0.0411,0.0349,0.0339,0.0323,0.0272,0.0265,0.0296,0.0296,0.0226,0.0219,0.0213,0.0213,0.019,0.0187,0.0185,0.0154,0.0155,0.0156,0,0,0,0,0,0,0.0465,0.0456,0.0365,0.04,0.0387,0.0346,0.0328,0.0321,0.0301,0.0264,0.0258,0.0285,0.0226,0.0217,0.0199,0.0209,0.0185,0.0182,0.0152,0.0154,0.0156,0.0182,0,0,0,0,0,0,0.0469,0.0457,0.0442,0.04,0.0386,0.0334,0.0327,0.0318,0.0296,0.0295,0.0252,0.0246,0.0226,0.0204,0.0195,0.0203,0.018,0.0151,0.0153,0.0155,0.018,0.0185,0.0189,0,0,0,0,0,0.0473,0.0446,0.0442,0.0432,0.0369,0.0334,0.0324,0.0298,0.0295,0.0284,0.0269,0.0248,0.0214,0.0202,0.0191,0.0198,0.0149,0.0152,0.0155,0.0178,0.0184,0.0189,0,0,0,0,0,0,0.0469,0.044,0.0434,0.0396,0.0373,0.033,0.0308,0.0297,0.0272,0.0274,0.0246,0.0239,0.0231,0.0214,0.0201,0.0202,0.0184,0.0185,0.0206,0.0211,0.0216,0.0225,0.0177,0,0,0,0,0,0.0467,0.0447,0.0419,0.0386,0.0377,0.0345,0.0325,0.0313,0.0289,0.0277,0.0254,0.024,0.0231,0.0221,0.0204,0.0189,0.0173,0.0195,0.02,0.0204,0.0208,0.0205,0.0209,0.0166,0.0166,0.0166,0,0,0.0459,0.0435,0.0425,0.0386,0.0363,0.0356,0.0335,0.0308,0.0308,0.0274,0.0261,0.0246,0.0232,0.0225,0.0221,0.0212,0.0206,0.0207,0.021,0.0213,0.0208,0.0212,0.0216,0.0168,0.0167,0.0167,0,0,0.0437,0.0412,0.0399,0.0387,0.0361,0.0349,0.0348,0.0316,0.0308,0.0291,0.0284,0.0278,0.0245,0.0247,0.0243,0.0263,0.023,0.0262,0.0287,0.0284,0.0287,0.029,0.026,0.026,0.0265,0.0265,0.0266,0,0.0435,0.041,0.0387,0.0377,0.0376,0.0355,0.0356,0.0341,0.031,0.0314,0.0295,0.028,0.0259,0.0275,0.0285,0.0271,0.0255,0.0262,0.0288,0.0291,0.0293,0.0262,0.0261,0.0267,0.0267,0.0267,0.0267,0,0.0411,0.0401,0.039,0.0385,0.0379,0.037,0.0366,0.0361,0.0351,0.0344,0.0346,0.0318,0.0315,0.0312,0.0297,0.0315,0.0293,0.0291,0.0269,0.0299,0.0264,0.0263,0.0269,0.0269,0.0268,0.0268,0,0,0.0396,0.0383,0.0382,0.0396,0.0389,0.0387,0.0394,0.0402,0.0418,0.039,0.0406,0.0388,0.0375,0.0372,0.0357,0.0353,0.0341,0.0328,0.0327,0.0289,0.0314,0.0301,0.0298,0.0342,0.0343,0.0343,0.0278,0,0.0394,0.0392,0.0385,0.0405,0.0414,0.0418,0.0433,0.0441,0.0437,0.0445,0.043,0.0434,0.0399,0.0398,0.0387,0.036,0.0342,0.0358,0.03,0.0298,0.0275,0.0298,0.0311,0.0255,0.0276,0.0276,0.0276,0,0.0384,0.0387,0.0403,0.0439,0.0445,0.0457,0.0494,0.0505,0.0517,0.0513,0.0511,0.0494,0.0486,0.0451,0.0404,0.0414,0.0365,0.0335,0.0332,0.0312,0.0284,0.0234,0.0252,0.0274,0.0274,0.0274,0.0274,0,0.0396,0.041,0.0429,0.0437,0.0465,0.0483,0.0505,0.0526,0.0552,0.056,0.0573,0.0551,0.0544,0.049,0.0416,0.041,0.0358,0.0342,0.028,0.0277,0.0273,0.027,0.0307,0.0307,0.0307,0.0307,0.0307,0,0.0403,0.0421,0.0438,0.045,0.0495,0.0507,0.0556,0.0571,0.06,0.0644,0.0611,0.063,0.0555,0.0514,0.0436,0.0354,0.0368,0.0286,0.0268,0.0282,0.028,0.029,0.0289,0.0305,0.0305,0.0306,0.0306,0,0.0414,0.0417,0.0449,0.0483,0.05,0.0534,0.0596,0.0633,0.0651,0.0703,0.071,0.0692,0.064,0.0552,0.0463,0.0385,0.0306,0.027,0.0277,0.0262,0.0214,0.0215,0.0191,0.019,0.019,0.0189,0.0188,0,0.0416,0.0433,0.0477,0.0505,0.0521,0.0573,0.0616,0.0655,0.0699,0.0746,0.0776,0.0743,0.0729,0.0583,0.0453,0.0314,0.0297,0.0222,0.022,0.0222,0.0206,0.0209,0.0211,0.0212,0.0211,0.0211,0.0211,0,0.0436,0.0451,0.0477,0.0533,0.0579,0.064,0.0702,0.0745,0.0799,0.0839,0.088,0.0872,0.0747,0.0621,0.0434,0.0338,0.0247,0.0213,0.0226,0.0246,0.0238,0.0224,0.0226,0.0209,0.0209,0.021,0.021,0.021,0.0452,0.048,0.0517,0.0571,0.0626,0.0697,0.0749,0.0816,0.0889,0.0947,0.0944,0.0927,0.0792,0.0556,0.0401,0.0233,0.0243,0.0172,0.0174,0.0176,0.0197,0.019,0.0153,0.0153,0.0153,0.0153,0.0153,0,0.0481,0.0511,0.0559,0.062,0.0675,0.0705,0.0801,0.0851,0.0932,0.0978,0.1002,0.0862,0.0731,0.0567,0.0331,0.0188,0.0176,0.0127,0.0152,0.0155,0.0157,0.0178,0.0129,0.0128,0.0128,0.0127,0,0,0.0495,0.0541,0.0564,0.0645,0.0691,0.077,0.0823,0.0896,0.0948,0.0979,0.0968,0.095,0.0775,0.0592,0.0407,0.0272,0.0239,0.0233,0.0269,0.0324,0.0328,0.0201,0.0239,0,0,0,0,0]}],[{"header":{"parameterUnit":"m.s-1","parameterCategory":2,"la1":30.2991,"la2":30.254,"lo1":-89.0895,"lo2":-89.0444,"dy":0.0017,"dx":0.0017,"nx":28,"ny":28,"refTime":"2023-08-21T09:00:00:Z","depth":"4","parameterNumber":2,"parameterNumberName":"U-component_of_CURRENTS"},"data":[0,0,0,0,0,0,0,0,0,0,0,0,0,0,0,0,0,0,0,0,0,0,0,0,0,0,0,0,0,0,0,0,0,0,0,0,0,0,0,0,0,0,0,0,0,0,0,0,0,0,0,0,0,0,0,0,0,0,0.0766,0.0767,0,0.0804,0.0804,0.0804,0.0801,0.0801,0.0801,0.0801,0.0812,0.0812,0.0812,0,0,0,0,0,0,0,0,0,0,0,0,0,0.0646,0.0648,0.0766,0.0767,0.0768,0.0804,0.0804,0.0804,0.0801,0.0801,0.0801,0.0801,0.0811,0.0812,0.0812,0,0,0,0,0,0,0,0,0,0,0,0,0,0.0687,0.0648,0.0766,0.0775,0.0777,0.0804,0.0804,0.0804,0.0801,0.0801,0.0801,0.0801,0.0811,0.0812,0.0812,0.0816,0,0,0.0814,0.0814,0,0,0,0,0,0,0,0,0.0684,0.069,0.0773,0.0775,0.0777,0.0803,0.0766,0.0809,0.0801,0.0786,0.0801,0.0801,0.081,0.0811,0.081,0.0816,0.0817,0.0814,0.0814,0.0814,0.0814,0,0,0,0,0,0,0,0.0682,0.0688,0.0775,0.0774,0.0777,0.0763,0.0768,0.0774,0.0792,0.0787,0.0788,0.0802,0.081,0.0809,0.081,0.0817,0.0814,0.0814,0.0814,0.0814,0.0873,0.0874,0,0,0,0,0,0,0.0692,0.0686,0.0774,0.0777,0.0736,0.0766,0.0772,0.079,0.0793,0.0795,0.0802,0.0802,0.0809,0.0809,0.081,0.0851,0.0814,0.0814,0.0815,0.0872,0.0873,0.0875,0,0,0,0,0,0,0.0689,0.0699,0.0772,0.0736,0.0746,0.0769,0.0789,0.0791,0.0813,0.0806,0.0807,0.0826,0.0809,0.081,0.0837,0.085,0.0815,0.0815,0.087,0.0872,0.0874,0.091,0,0,0,0,0,0,0.0686,0.0698,0.0722,0.0738,0.0748,0.0804,0.0789,0.0792,0.0823,0.0824,0.0826,0.0826,0.0809,0.0837,0.0837,0.085,0.0815,0.0869,0.0871,0.0873,0.0907,0.0913,0.0918,0,0,0,0,0,0.0681,0.0711,0.0723,0.0734,0.0778,0.0806,0.081,0.0821,0.0825,0.0839,0.0845,0.0827,0.0852,0.0838,0.0839,0.0852,0.0867,0.087,0.0873,0.0905,0.0912,0.0918,0,0,0,0,0,0,0.0663,0.0715,0.0727,0.077,0.0796,0.0808,0.0833,0.0838,0.0854,0.0864,0.0846,0.0847,0.0871,0.0866,0.0851,0.0878,0.0856,0.0859,0.088,0.0886,0.0891,0.0905,0.0816,0,0,0,0,0,0.0674,0.0716,0.075,0.0785,0.0806,0.0825,0.0842,0.0853,0.0868,0.0876,0.0877,0.0881,0.088,0.0888,0.0888,0.0911,0.0915,0.092,0.0925,0.093,0.0943,0.0958,0.0966,0.0884,0.0884,0.0884,0,0,0.0673,0.0712,0.0733,0.0786,0.0809,0.0838,0.0834,0.0875,0.0892,0.0875,0.0905,0.0902,0.0891,0.0908,0.0919,0.0908,0.0958,0.0934,0.0937,0.0948,0.0962,0.097,0.0977,0.0886,0.0886,0.0885,0,0,0.0695,0.0735,0.0778,0.0805,0.086,0.0869,0.0888,0.092,0.0931,0.0962,0.0946,0.0961,0.097,0.0959,0.0953,0.0995,0.0984,0.0995,0.1034,0.1048,0.1055,0.1061,0.1085,0.1092,0.0999,0.0999,0.0999,0,0.0695,0.0752,0.079,0.0835,0.0859,0.0886,0.092,0.0935,0.0967,0.0978,0.0981,0.0997,0.0991,0.0996,0.1011,0.1005,0.1018,0.1005,0.1055,0.1061,0.1066,0.1089,0.1097,0.1001,0.1001,0.1001,0.1001,0,0.074,0.0789,0.0818,0.0881,0.0908,0.0946,0.0973,0.1002,0.1022,0.103,0.1058,0.1055,0.1065,0.106,0.105,0.108,0.1079,0.1056,0.1035,0.1076,0.1098,0.1106,0.1004,0.1004,0.1003,0.1003,0,0,0.073,0.083,0.0842,0.0875,0.0937,0.0959,0.0999,0.1032,0.1057,0.1085,0.1112,0.1117,0.1127,0.1123,0.1111,0.1126,0.1176,0.1118,0.1118,0.1138,0.1225,0.1128,0.1127,0.1162,0.1164,0.1165,0.1227,0,0.0754,0.0837,0.0878,0.0936,0.0977,0.1009,0.1036,0.1069,0.1095,0.1127,0.1135,0.1156,0.1145,0.1159,0.1175,0.1172,0.1198,0.1163,0.1187,0.1188,0.1093,0.1133,0.1169,0.1233,0.1235,0.1236,0.1237,0,0.0786,0.0838,0.0906,0.0971,0.0991,0.1023,0.1072,0.1102,0.1146,0.1169,0.12,0.1209,0.1241,0.1225,0.126,0.1241,0.1251,0.1247,0.1248,0.1151,0.1105,0.1183,0.1251,0.125,0.1249,0.1248,0.1247,0,0.0763,0.0853,0.0906,0.093,0.1005,0.1037,0.1072,0.112,0.1147,0.1206,0.1235,0.1266,0.1295,0.1309,0.1316,0.1299,0.135,0.1318,0.1242,0.1236,0.1288,0.1281,0.1356,0.1356,0.1355,0.1355,0.1355,0,0.0768,0.0812,0.0905,0.0932,0.0982,0.1039,0.1088,0.1127,0.1186,0.1216,0.1262,0.1285,0.1322,0.1347,0.1345,0.1318,0.1377,0.1262,0.1245,0.1303,0.1297,0.1294,0.1286,0.1358,0.1357,0.1357,0.1356,0,0.074,0.0804,0.0866,0.0953,0.098,0.1018,0.1097,0.1127,0.1193,0.1239,0.1264,0.1322,0.1351,0.1373,0.1398,0.1346,0.1332,0.1311,0.1394,0.1378,0.1206,0.12,0.1232,0.1229,0.1226,0.1224,0.1222,0,0.0732,0.0769,0.0869,0.0902,0.0947,0.101,0.1048,0.1123,0.1152,0.1241,0.1254,0.1317,0.1343,0.1307,0.1334,0.1327,0.1303,0.1293,0.1232,0.1213,0.1194,0.1191,0.1188,0.1219,0.1218,0.1217,0.1217,0,0.0709,0.0757,0.0804,0.0874,0.0926,0.0968,0.103,0.1044,0.1125,0.1196,0.1211,0.1217,0.1247,0.125,0.1259,0.1245,0.1291,0.1267,0.1271,0.1213,0.1198,0.118,0.118,0.1208,0.1209,0.121,0.1211,0,0.0688,0.0711,0.078,0.0831,0.0889,0.091,0.0947,0.0982,0.1018,0.1115,0.1119,0.1177,0.1242,0.1209,0.1213,0.1195,0.1165,0.1109,0.1121,0.1131,0.1063,0.1026,0.0979,0,0,0,0,0,0.0665,0.0686,0.073,0.0779,0.0832,0.0864,0.0926,0.0963,0.1041,0.1024,0.1067,0.1086,0.1085,0.1113,0.1072,0.116,0.1169,0.1104,0.1112,0.1161,0.1171,0.1096,0,0,0,0,0,0,0.065,0.0694,0.0711,0.0725,0.0745,0.0788,0.0823,0.0875,0.0866,0.0951,0.0957,0.1015,0.1034,0.1102,0.1052,0.1059,0.1037,0.1144,0.114,0.1155,0.1164,0.1172,0.1098,0,0,0,0,0]},{"header":{"parameterUnit":"m.s-1","parameterCategory":2,"la1":30.2991,"la2":30.254,"lo1":-89.0895,"lo2":-89.0444,"dy":0.0017,"dx":0.0017,"nx":28,"ny":28,"refTime":"2023-08-21T09:00:00:Z","depth":"4","parameterNumber":3,"parameterNumberName":"V-component_of_CURRENTS"},"data":[0,0,0,0,0,0,0,0,0,0,0,0,0,0,0,0,0,0,0,0,0,0,0,0,0,0,0,0,0,0,0,0,0,0,0,0,0,0,0,0,0,0,0,0,0,0,0,0,0,0,0,0,0,0,0,0,0,0,0.0397,0.0397,0,0.0358,0.0357,0.0357,0.0372,0.0372,0.0373,0.0373,0.0375,0.0374,0.0374,0,0,0,0,0,0,0,0,0,0,0,0,0,0.0468,0.0467,0.0397,0.0396,0.0396,0.0358,0.0357,0.0357,0.0372,0.0372,0.0373,0.0374,0.0375,0.0374,0.0373,0,0,0,0,0,0,0,0,0,0,0,0,0,0.0437,0.0467,0.0397,0.0396,0.0395,0.0358,0.0357,0.0357,0.0371,0.0372,0.0373,0.0374,0.0375,0.0374,0.0373,0.0351,0,0,0.0371,0.0371,0,0,0,0,0,0,0,0,0.0439,0.0435,0.0397,0.0396,0.0395,0.0367,0.0383,0.0356,0.0371,0.0384,0.0373,0.0374,0.0373,0.0372,0.0367,0.0351,0.0351,0.0371,0.0371,0.037,0.037,0,0,0,0,0,0,0,0.0441,0.0437,0.0385,0.0396,0.0394,0.0391,0.0388,0.0378,0.0378,0.0383,0.0383,0.0373,0.0373,0.0368,0.0368,0.0351,0.0371,0.037,0.037,0.037,0.0366,0.0366,0,0,0,0,0,0,0.0439,0.0438,0.0386,0.0383,0.0416,0.0389,0.0385,0.0378,0.0377,0.0376,0.0372,0.0374,0.0369,0.0368,0.0368,0.0383,0.037,0.0369,0.0369,0.0365,0.0366,0.0366,0,0,0,0,0,0,0.044,0.0435,0.0388,0.0407,0.0401,0.0386,0.0378,0.0377,0.0377,0.0367,0.0369,0.0374,0.037,0.0369,0.037,0.0382,0.0369,0.0368,0.0365,0.0366,0.0366,0.0387,0,0,0,0,0,0,0.0443,0.0436,0.0433,0.0407,0.0399,0.0372,0.0377,0.0375,0.0368,0.037,0.0369,0.037,0.037,0.0371,0.0369,0.038,0.0368,0.0365,0.0365,0.0366,0.0386,0.0388,0.039,0,0,0,0,0,0.0446,0.0434,0.0433,0.0427,0.0395,0.0371,0.0367,0.0362,0.0367,0.0367,0.0371,0.037,0.0374,0.037,0.0368,0.038,0.0364,0.0365,0.0366,0.0385,0.0388,0.039,0,0,0,0,0,0,0.0462,0.0433,0.0432,0.0413,0.0397,0.0373,0.0366,0.0362,0.0363,0.0369,0.0368,0.0368,0.0376,0.0371,0.0367,0.0381,0.0371,0.0372,0.0387,0.0389,0.0392,0.0396,0.0367,0,0,0,0,0,0.0464,0.0449,0.0425,0.041,0.0402,0.0386,0.0376,0.0373,0.0365,0.0366,0.0367,0.037,0.0375,0.0377,0.0377,0.0377,0.0359,0.0386,0.0388,0.039,0.0392,0.0374,0.0374,0.0369,0.0369,0.0369,0,0,0.0465,0.0446,0.0439,0.0413,0.0401,0.0394,0.0384,0.0369,0.0373,0.0365,0.0376,0.0375,0.0376,0.0384,0.0387,0.0383,0.038,0.0391,0.0392,0.0394,0.0374,0.0375,0.0375,0.0369,0.0369,0.0369,0,0,0.0456,0.0446,0.0433,0.0423,0.0402,0.0396,0.0394,0.0376,0.0381,0.0381,0.0385,0.039,0.039,0.0397,0.0401,0.0411,0.0391,0.0414,0.0429,0.0411,0.0411,0.0411,0.0378,0.0375,0.0416,0.0416,0.0416,0,0.046,0.0444,0.0426,0.0415,0.0413,0.0401,0.0399,0.0397,0.0386,0.0393,0.0391,0.0398,0.0398,0.0413,0.0422,0.0417,0.0396,0.0419,0.0413,0.0413,0.0412,0.0379,0.0375,0.0417,0.0417,0.0417,0.0417,0,0.0443,0.0438,0.043,0.0421,0.0418,0.0411,0.0408,0.0413,0.0418,0.0417,0.0428,0.0423,0.043,0.0433,0.0432,0.0436,0.0418,0.0416,0.0406,0.0414,0.0378,0.0374,0.0419,0.0419,0.0418,0.0418,0,0,0.0431,0.0421,0.0421,0.043,0.0424,0.0422,0.0434,0.0442,0.0456,0.0449,0.0462,0.0469,0.0463,0.0466,0.0463,0.045,0.0427,0.0435,0.0433,0.04,0.0373,0.0351,0.0343,0.0423,0.0422,0.0422,0.0345,0,0.0428,0.042,0.0419,0.0432,0.0433,0.0441,0.0457,0.0467,0.0474,0.0483,0.0479,0.0488,0.0477,0.0482,0.0467,0.0442,0.0419,0.0448,0.0372,0.0369,0.0347,0.0339,0.0421,0.0342,0.0341,0.034,0.0339,0,0.0412,0.0415,0.0423,0.0449,0.0452,0.0465,0.0498,0.0509,0.0521,0.0525,0.0526,0.0518,0.0508,0.0494,0.0442,0.046,0.0418,0.039,0.0386,0.0357,0.034,0.0334,0.0331,0.0332,0.0332,0.0333,0.0333,0,0.0413,0.0422,0.0437,0.0442,0.0464,0.0483,0.0504,0.0524,0.0544,0.0551,0.0559,0.0539,0.0532,0.0482,0.0426,0.0432,0.0355,0.0355,0.029,0.0287,0.0321,0.0322,0.0308,0.0308,0.0308,0.0308,0.0308,0,0.0406,0.042,0.0442,0.0449,0.0485,0.0498,0.0537,0.0552,0.0574,0.0598,0.0582,0.0583,0.0529,0.0482,0.0424,0.034,0.0349,0.0286,0.0267,0.033,0.0333,0.0316,0.0318,0.0305,0.0306,0.0307,0.0307,0,0.0398,0.0408,0.0431,0.0466,0.0483,0.051,0.0564,0.0589,0.0606,0.0632,0.0635,0.0612,0.0549,0.048,0.0393,0.0339,0.0261,0.0226,0.0284,0.0271,0.0202,0.0206,0.0144,0.0143,0.0142,0.0141,0.014,0,0.039,0.0399,0.0446,0.047,0.0489,0.0534,0.0567,0.0603,0.0629,0.0647,0.0656,0.061,0.0581,0.0433,0.0362,0.0234,0.022,0.0169,0.0198,0.0198,0.0186,0.0192,0.0197,0.0138,0.0138,0.0137,0.0137,0,0.0384,0.0404,0.0427,0.0475,0.0516,0.0562,0.061,0.0629,0.0666,0.0683,0.0663,0.0599,0.0523,0.0423,0.0321,0.0235,0.02,0.0156,0.0159,0.0185,0.019,0.018,0.0187,0.0133,0.0134,0.0134,0.0134,0,0.0386,0.0402,0.0436,0.0479,0.0529,0.0572,0.0601,0.0629,0.0655,0.0675,0.0663,0.0593,0.0558,0.0421,0.033,0.024,0.0222,0.0191,0.0191,0.0195,0.0238,0.0252,0.0194,0,0,0,0,0,0.0385,0.0402,0.0439,0.0483,0.0533,0.0563,0.0622,0.0647,0.068,0.0666,0.0667,0.0597,0.0467,0.0415,0.0319,0.0306,0.0203,0.019,0.0168,0.011,0.0115,0.0156,0,0,0,0,0,0,0.0384,0.0415,0.0431,0.0477,0.0506,0.0562,0.06,0.0626,0.0619,0.0639,0.0571,0.0557,0.0431,0.0515,0.031,0.0285,0.0254,0.0138,0.0135,0.0108,0.0112,0.0116,0.016,0,0,0,0,0]}]]